Lid_Strength_Index
3 3 3 3 4 5 5 7 9 6 4 8 11 12 9 8 8 7 7 8 9 11 10 12 12 12 10 8 8 11 10 13 16 13 10 9 10 12 12 17 17 17 17 16
3 3 3 3 5 5 5 7 7 5 5 13 14 9 8 7 8 8 8 9 8 8 11 13 11 10 8 8 9 11 10 14 18 15 13 11 12 11 11 13 16 16 19 17
3 3 4 4 3 4 4 8 11 8 8 8 10 10 10 10 7 8 7 8 8 9 11 9 12 11 8 7 8 7 8 12 15 17 15 12 14 12 11 13 18 16 15 14
3 4 4 4 3 4 4 7 10 9 13 10 9 9 9 10 10 7 7 9 9 10 13 12 13 10 9 8 8 9 10 14 13 12 12 12 12 12 12 13 13 16 14 13
3 5 4 3 3 4 6 7 8 9 10 8 10 11 10 10 9 9 10 10 9 9 12 11 13 11 11 11 9 11 10 15 14 15 12 12 13 12 12 12 12 13 13 13
4 5 3 4 4 4 5 6 7 8 12 12 13 12 9 9 8 8 7 8 9 12 9 8 8 7 8 9 10 12 13 15 16 18 14 15 18 15 13 12 12 13 15 13
5 5 4 4 5 4 4 6 8 12 14 14 11 9 8 9 8 9 8 7 10 7 6 7 8 10 11 11 11 9 15 16 16 16 15 20 13 11 11 12 11 11 11 10
4 5 3 4 5 4 3 5 7 11 14 10 10 9 9 8 8 9 8 7 7 7 9 13 15 15 15 15 10 11 11 14 16 17 17 16 13 12 13 13 13 10 10 9
4 3 3 3 3 4 3 4 6 8 12 11 7 8 9 12 13 11 9 6 6 8 15 15 19 20 17 15 14 11 12 15 17 17 18 20 15 12 9 10 15 10 9 10
3 3 3 3 3 3 4 4 4 6 10 9 7 9 10 8 10 13 12 9 10 9 13 15 20 18 14 17 19 18 17 16 18 18 17 17 13 11 9 17 15 9 8 8
3 3 3 3 3 4 3 4 3 5 9 7 5 5 7 7 9 12 9 10 12 12 15 17 17 21 16 16 14 16 17 18 19 18 18 19 10 10 13 11 10 9 9 9
4 3 3 3 3 3 3 4 2 3 5 6 4 3 3 4 5 7 9 9 10 10 12 13 15 15 17 17 16 13 15 13 16 15 15 10 9 8 8 8 9 9 9 7
4 3 3 3 3 3 3 4 4 5 10 7 6 6 5 2 3 4 9 12 8 10 9 12 13 14 14 16 14 13 11 9 13 12 10 9 8 6 6 7 8 7 6 7
4 3 4 4 3 3 3 4 4 5 8 12 9 6 5 3 3 3 4 5 6 7 10 13 13 14 10 13 11 12 10 10 11 11 9 8 8 7 6 6 6 7 7 7
4 4 4 3 3 3 3 4 3 2 4 11 11 7 5 4 3 5 5 5 7 9 12 13 13 12 12 12 13 13 9 10 11 12 7 8 7 6 5 8 8 7 8 7
4 4 3 3 3 3 3 6 3 2 2 10 12 8 8 6 6 5 5 5 6 7 10 12 11 9 10 13 13 9 7 6 6 8 6 5 6 6 6 8 7 7 7 7
5 5 4 4 4 3 5 7 5 3 2 11 12 12 10 9 8 8 8 7 8 8 10 12 10 10 8 13 12 8 7 6 6 5 5 7 8 9 7 7 6 6 6 6
5 5 5 5 5 5 6 6 5 4 7 10 13 13 12 10 14 13 9 12 11 12 10 12 12 11 12 13 8 8 8 7 6 7 7 7 7 7 8 8 8 9 8 7
5 5 5 6 7 9 8 6 6 6 7 13 13 13 13 9 11 12 12 11 13 12 13 12 11 13 13 10 9 8 8 8 9 9 10 10 10 10 9 9 9 9 9 9
5 6 9 13 10 6 6 8 11 12 13 13 14 12 13 9 13 13 12 13 13 14 13 10 13 12 9 11 10 9 10 9 9 10 10 10 10 10 9 9 9 9 9 9
8 11 12 8 5 8 11 13 13 13 14 14 13 13 13 10 13 13 13 14 14 16 17 13 16 17 13 11 11 10 9 9 8 7 7 7 8 9 9 9 8 8 8 8
8 8 7 9 11 13 13 14 14 14 16 13 14 12 11 12 10 13 13 14 14 20 16 15 17 14 11 10 10 9 8 8 8 8 8 8 7 7 7 8 8 8 8 10
8 10 12 12 14 16 19 18 17 16 14 13 12 13 13 12 12 13 14 16 17 13 16 18 15 11 10 9 8 8 8 9 11 9 8 7 7 7 9 9 9 10 9 10
14 14 16 19 19 16 18 18 15 13 12 12 12 13 14 13 18 14 16 16 14 16 18 18 13 11 10 9 9 10 9 11 10 9 9 9 10 10 10 11 10 11 11 8
15 17 20 17 15 13 12 12 11 11 11 12 15 13 14 14 18 14 15 17 17 15 17 15 12 10 10 10 10 9 10 10 11 9 10 10 11 11 10 9 10 10 10 7
15 17 17 13 13 14 12 11 11 11 12 14 15 19 21 20 20 19 17 20 19 16 16 13 11 10 10 9 9 8 8 8 8 8 8 8 9 10 8 8 9 9 8 5
18 19 13 17 15 17 15 11 12 11 12 18 18 20 18 17 22 21 15 18 16 14 13 12 10 9 9 8 8 9 9 8 8 7 7 7 7 9 10 10 7 7 7 8